Station YKTV2 - 8637689 - Yorktown USCG Training Center, VA Image indicating link to RSS feed of recent meteorological observations for station YKTV2


Conditions at YKTV2 as of
(12:00 pm EDT)
1600 GMT on 07/13/2024:
     

Click on the graph icon in the table below to see a time series plot of the last five days of that observation.

5-day plot - Wind Direction Wind Direction (WDIR): S ( 180 deg true )
5-day plot - Wind Speed Wind Speed (WSPD): 1.9 kts
5-day plot - Wind Gust Wind Gust (GST): 5.1 kts
5-day plot - Atmospheric Pressure Atmospheric Pressure (PRES):30.14 in
5-day plot - Pressure Tendency Pressure Tendency (PTDY):-0.01 in ( Falling )
5-day plot - Air Temperature Air Temperature (ATMP): 82.4 °F
5-day plot - Water Temperature Water Temperature (WTMP): 80.8 °F
5-day plot - Wind Speed at 10 Meters Wind Speed at 10 meters (WSPD10M): 1.9 kts
5-day plot - Wind Speed at 20 Meters Wind Speed at 20 meters (WSPD20M): 1.9 kts
5-day plot -  Wind Speed, Wind Gust and Atmospheric Pressure Combined plot of Wind Speed, Gust, and Air Pressure
NOS Water Level Observation Network Water Level
Previous observations
TIME
(EDT)
5-day plot - Wind Direction
WDIR
 
5-day plot - Wind Speed
WSPD
kts
5-day plot - Wind Gust
GST
kts
5-day plot - Wave Height
WVHT
ft
5-day plot - Dominant Wave Period
DPD
sec
5-day plot - Average Wave Period
APD
sec
5-day plot - Mean Wave Direction
MWD
 
5-day plot - Atmospheric Pressure
PRES
in
5-day plot - Pressure Tendency
PTDY
in
5-day plot - Air Temperature
ATMP
°F
5-day plot - Water Temperature
WTMP
°F
5-day plot - Dew Point
DEWP
°F
5-day plot - Salinity
SAL
psu
5-day plot - Visibility
VIS
nmi
5-day plot - Tide (above MLLW)
TIDE
ft
2024-07-13 11:54 am SW 7.0 8.9----30.14- 82.2 80.8----
2024-07-13 11:48 am SW 1.9 6.0----30.14- 82.2 80.8----
2024-07-13 11:42 am SW 2.9 5.1----30.14- 81.9 80.8----
2024-07-13 11:36 amSSW 2.9 4.1----30.14- 81.5 80.8----
2024-07-13 11:30 amSSW 2.9 5.1----30.14- 81.0 80.8----
2024-07-13 11:24 amSSW 4.1 5.1----30.14- 80.6 80.8----
2024-07-13 11:18 am SW 4.1 7.0----30.14- 80.4 80.6----
2024-07-13 11:12 amSSW 2.9 6.0----30.14- 80.4 80.6----
2024-07-13 11:06 am SW 4.1 6.0----30.14- 80.4 80.8----
2024-07-13 11:00 am SW 5.1 7.0----30.14+0.00 80.4 80.8----
2024-07-13 10:54 am SW 5.1 6.0----30.14- 80.4 80.8----
2024-07-13 10:48 amSSW 5.1 8.0----30.14- 80.2 80.8----
2024-07-13 10:42 am S 5.1 7.0----30.14- 80.4 80.8----
2024-07-13 10:36 am S 5.1 8.0----30.14- 80.6 80.8----
2024-07-13 10:30 am S 5.1 8.9----30.14- 80.4 80.8----
2024-07-13 10:24 am S 7.0 8.0----30.14- 80.1 80.8----
2024-07-13 10:18 am S 4.1 6.0----30.14- 80.1 80.8----
2024-07-13 10:12 am SW 6.0 9.9----30.14- 80.1 80.8----
2024-07-13 10:06 amSSW 5.1 9.9----30.15- 80.1 80.8----
2024-07-13 10:00 amSSW 4.1 7.0----30.15+0.00 80.1 80.8----
2024-07-13 09:54 am S 5.1 8.9----30.15- 79.9 80.8----
2024-07-13 09:48 amSSW 7.0 8.9----30.15- 79.7 80.8----
2024-07-13 09:42 amSSW 8.0 9.9----30.14- 79.7 80.8----
2024-07-13 09:36 amSSW 7.0 12.0----30.14- 79.7 80.8----
2024-07-13 09:30 amSSW 5.1 8.0----30.14- 79.5 80.8----
2024-07-13 09:24 amSSW 5.1 8.9----30.14- 79.3 80.8----
2024-07-13 09:18 amSSW 6.0 8.0----30.14- 78.8 80.8----
2024-07-13 09:12 amSSW 5.1 9.9----30.15- 78.8 80.8----
2024-07-13 09:06 amSSW 6.0 8.9----30.14- 78.6 80.8----
2024-07-13 09:00 am S 6.0 9.9----30.14+0.00 78.6 80.6----
2024-07-13 08:54 am S 5.1 9.9----30.14- 78.8 80.6----
2024-07-13 08:48 amSSW 5.1 8.9----30.15- 78.6 80.6----
2024-07-13 08:42 amSSW 5.1 8.9----30.15- 78.4 80.6----
2024-07-13 08:36 amSSW 6.0 8.0----30.15- 78.4 80.6----
2024-07-13 08:30 amSSW 6.0 8.9----30.15- 78.4 80.6----
2024-07-13 08:24 am S 6.0 9.9----30.15- 78.4 80.6----
2024-07-13 08:18 am S 8.0 11.1----30.15- 78.4 80.6----
2024-07-13 08:12 am S 7.0 8.9----30.15- 78.3 80.6----
2024-07-13 08:06 am S 5.1 6.0----30.15- 78.1 80.6----
2024-07-13 08:00 am S 5.1 7.0----30.15+0.01 78.1 80.6----
2024-07-13 07:54 am S 4.1 6.0----30.15- 78.1 80.6----
2024-07-13 07:48 am S 4.1 6.0----30.14-- 80.6----
2024-07-13 07:42 am S 4.1 7.0----30.14-- 80.8----
2024-07-13 07:36 am S 5.1 7.0----30.14-- 80.6----
2024-07-13 07:30 am S 5.1 8.0----30.14-- 80.2----
2024-07-13 07:24 amSSE 5.1 6.0----30.14-- 79.9----
2024-07-13 07:18 amSSE 4.1 7.0----30.14- 77.4 79.5----
2024-07-13 07:12 am S 5.1 6.0----30.14- 77.2 79.5----
2024-07-13 07:06 amSSE 4.1 7.0----30.14- 77.0 79.3----
2024-07-13 07:00 amSSE 5.1 7.0----30.15- 77.0 79.3----
2024-07-13 06:54 amSSE 6.0 7.0----30.14- 76.8 79.3----
2024-07-13 06:48 amSSE 4.1 6.0----30.14- 76.6 79.2----
2024-07-13 06:42 amSSE 4.1 5.1----30.14- 76.6 79.5----
2024-07-13 06:36 amSSE 4.1 6.0----30.14- 76.5 80.4----
2024-07-13 06:30 amSSE 4.1 5.1----30.14- 76.5 80.4----
2024-07-13 06:24 amSSE 4.1 6.0----30.14- 76.3 80.2----
2024-07-13 06:18 am S 4.1 6.0----30.14- 76.1 80.6----
2024-07-13 06:12 am S 4.1 7.0----30.14- 76.1 80.6----
2024-07-13 06:06 amSSE 5.1 7.0----30.14- 76.1 80.4----
2024-07-13 06:00 amSSE 5.1 8.0----30.14+0.00- 80.4----
2024-07-13 05:54 amSSE 7.0 8.0----30.14-- 80.4----
2024-07-13 05:48 amSSE 6.0 7.0----30.14-- 80.6----
2024-07-13 05:42 amSSE 6.0 8.0----30.14-- 80.8----
2024-07-13 05:36 amSSE 6.0 7.0----30.14-- 80.8----
2024-07-13 05:30 am S 5.1 6.0----30.14- 75.6 80.6----
2024-07-13 05:24 amSSE 4.1 6.0----30.14- 75.7 80.8----
2024-07-13 05:18 amSSE 5.1 7.0----30.13- 75.7 80.8----
2024-07-13 05:12 amSSE 5.1 6.0----30.13- 75.7 80.8----
2024-07-13 05:06 amSSE 4.1 6.0----30.13- 75.6 80.8----
2024-07-13 05:00 amSSE 5.1 7.0----30.13-0.03 75.6 80.8----
2024-07-13 04:54 am S 5.1 7.0----30.13- 75.4 80.8----
2024-07-13 04:48 am S 5.1 6.0----30.13- 75.2 81.0----
2024-07-13 04:42 am S 5.1 6.0----30.13- 75.4 81.0----
2024-07-13 04:36 amSSE 5.1 7.0----30.13- 75.4 81.0----
2024-07-13 04:30 am SE 5.1 6.0----30.13- 75.4 81.0----
2024-07-13 04:24 am SE 5.1 6.0----30.12- 75.4 81.0----
2024-07-13 04:18 amSSE 5.1 6.0----30.12- 75.4 81.0----
2024-07-13 04:12 amSSE 5.1 6.0----30.12- 75.2 80.8----
2024-07-13 04:06 amSSE 5.1 6.0----30.12- 75.4 80.8----
2024-07-13 04:00 amSSE 5.1 6.0------ 75.2 80.8----
2024-07-13 03:54 am S 5.1 6.0------ 75.4 80.8----
2024-07-13 03:48 amSSE 5.1 7.0----30.12- 75.4 80.8----
2024-07-13 03:42 amSSE 5.1 7.0----30.13- 75.6 80.8----
2024-07-13 03:36 amSSE 6.0 7.0----30.13- 75.4 80.8----
2024-07-13 03:30 am SE 5.1 7.0----30.13- 75.4 80.8----
2024-07-13 03:24 amSSE 5.1 7.0----30.14- 75.6 80.8----
2024-07-13 03:18 amSSE 6.0 8.0----30.14- 75.6 80.8----
2024-07-13 03:12 amSSE 7.0 8.9----30.14- 75.6 80.8----
2024-07-13 03:06 amSSE 7.0 8.9----30.14- 75.6 80.8----
2024-07-13 03:00 amSSE 6.0 8.0----30.14-0.03 75.4 80.8----
2024-07-13 02:54 amSSE 6.0 8.0----30.14- 75.6 80.8----
2024-07-13 02:48 amSSE 5.1 8.0----30.14- 75.6 80.8----
2024-07-13 02:42 amSSE 6.0 7.0----30.14- 75.4 80.8----
2024-07-13 02:36 amSSE 4.1 6.0----30.15- 75.4 80.8----
2024-07-13 02:30 amSSE 5.1 7.0----30.15- 75.4 80.8----
2024-07-13 02:24 amSSE 6.0 8.0----30.16- 75.4 80.8----
2024-07-13 02:18 amSSE 7.0 8.9----30.16- 75.4 80.8----
2024-07-13 02:12 amSSE 6.0 7.0----30.16- 75.2 80.8----
2024-07-13 02:06 amSSE 5.1 7.0----30.16- 75.2 80.8----
2024-07-13 02:00 am S 2.9 6.0----30.16-0.01 75.4 80.8----
2024-07-13 01:54 am S 4.1 7.0----30.17- 75.4 80.8----
2024-07-13 01:48 amSSE 5.1 7.0----30.17- 75.6 80.6----
2024-07-13 01:42 amSSE 6.0 7.0----30.17- 75.6 80.8----
2024-07-13 01:36 amSSE 5.1 7.0----30.17- 75.4 80.8----
2024-07-13 01:30 amSSE 7.0 8.0----30.17- 75.4 80.6----
2024-07-13 01:24 amSSE 7.0 8.9----30.17- 75.6 80.6----
2024-07-13 01:18 amSSE 7.0 8.9----30.18- 75.4 80.6----
2024-07-13 01:12 amSSE 6.0 8.9----30.17- 75.6 80.6----
2024-07-13 01:06 amSSE 8.0 9.9----30.17- 75.4 80.6----
2024-07-13 01:00 amSSE 7.0 8.9----30.17-0.01 75.6 80.6----
2024-07-13 12:54 amSSE 6.0 8.0----30.17- 75.7 80.6----
2024-07-13 12:48 amSSE 5.1 7.0----30.17- 75.6 80.6----
2024-07-13 12:42 am S 5.1 5.1----30.16- 75.6 80.8----
2024-07-13 12:36 amSSE 5.1 7.0----30.16- 75.6 80.8----
2024-07-13 12:30 am S 2.9 6.0----30.16- 75.6 80.8----
2024-07-13 12:24 am S 5.1 6.0----30.16- 75.6 80.8----
2024-07-13 12:18 am S 4.1 7.0----30.16- 75.7 81.0----
2024-07-13 12:12 amSSE 6.0 7.0----30.16- 75.6 81.0----
2024-07-13 12:06 amSSE 6.0 8.9----30.17- 75.7 81.0----
2024-07-13 12:00 amSSE 8.0 8.9----30.17+0.00 75.9 81.0----
2024-07-12 11:54 pmSSE 7.0 11.1----30.18- 75.9 81.0----
2024-07-12 11:48 pmSSE 7.0 9.9----30.18- 75.9 81.0----
2024-07-12 11:42 pm SE 8.0 9.9----30.19- 75.9 81.0----
2024-07-12 11:36 pm SE 7.0 8.9----30.19- 75.9 81.0----
2024-07-12 11:30 pmESE 6.0 8.0----30.19- 75.9 81.0----
2024-07-12 11:24 pmESE 6.0 8.0----30.18- 75.7 81.1----
2024-07-12 11:18 pmESE 5.1 6.0----30.18- 75.7 81.1----
2024-07-12 11:12 pm E 4.1 4.1----30.18- 75.6 81.1----
2024-07-12 11:06 pm E 1.9 2.9----30.18- 75.0 81.1----
2024-07-12 11:00 pmENE 1.0 1.9----30.18-0.01 75.0 81.1----
2024-07-12 10:54 pm N 1.0 1.9----30.18- 75.0 81.1----
2024-07-12 10:48 pm- 0.0 1.9----30.18- 74.8 81.1----
2024-07-12 10:42 pm- 0.0 1.9----30.18- 74.8 81.1----
2024-07-12 10:36 pm- 0.0 1.9----30.18- 74.7 81.1----
2024-07-12 10:30 pmWSW 1.0 2.9----30.19- 74.7 81.3----
2024-07-12 10:24 pm SW 2.9 4.1----30.19- 74.7 81.1----
2024-07-12 10:18 pmSSW 1.9 4.1----30.19- 74.7 81.1----
2024-07-12 10:12 pmSSW 4.1 4.1----30.19- 74.7 81.1----
2024-07-12 10:06 pmSSW 2.9 4.1----30.19- 74.7 81.3----
2024-07-12 10:00 pm SW 2.9 4.1----30.18+0.01 74.7 81.3----
2024-07-12 09:54 pmSSW 1.0 4.1----30.17- 74.7 81.3----
2024-07-12 09:48 pmSSE 1.9 2.9----30.17- 74.5 81.1----
2024-07-12 09:42 pmSSW 1.9 2.9----30.18- 74.5 81.1----
2024-07-12 09:36 pmSSW 1.9 2.9----30.17- 74.3 81.1----
2024-07-12 09:30 pmSSW 1.9 4.1----30.17- 74.5 81.1----
2024-07-12 09:24 pm S 2.9 4.1----30.17- 74.5 81.1----
2024-07-12 09:18 pmSSE 4.1 5.1----30.17- 74.7 81.1----
2024-07-12 09:12 pm S 1.9 2.9----30.18- 74.5 81.1----
2024-07-12 09:06 pmSSE 1.9 2.9----30.18- 74.3 81.1----
2024-07-12 09:00 pmSSE 1.9 4.1----30.18+0.01 74.5 81.1----
2024-07-12 08:54 pmSSE 2.9 4.1----30.18- 74.3 81.0----
2024-07-12 08:48 pm SE 4.1 5.1----30.19- 74.1 81.0----
2024-07-12 08:42 pm SE 2.9 4.1----30.18- 74.3 81.3----
2024-07-12 08:36 pm SE 2.9 5.1----30.18- 74.1 81.3----
2024-07-12 08:30 pm SE 2.9 5.1----30.18- 73.9 81.3----
2024-07-12 08:24 pm SE 2.9 5.1----30.18- 73.9 81.3----
2024-07-12 08:18 pm SE 2.9 4.1----30.19- 74.1 81.3----
2024-07-12 08:12 pmSSE 2.9 5.1----30.19- 73.9 81.1----
2024-07-12 08:06 pmSSE 1.9 2.9----30.19- 73.9 81.1----
2024-07-12 08:00 pmSSW 1.9 4.1----30.19+0.01 73.9 81.1----
2024-07-12 07:54 pmSSW 2.9 5.1----30.18- 73.8 81.0----
2024-07-12 07:48 pm S 2.9 5.1----30.18- 73.9 80.8----
2024-07-12 07:42 pm S 4.1 6.0----30.18- 73.9 80.6----
2024-07-12 07:36 pm S 4.1 6.0----30.18- 73.9 80.6----
2024-07-12 07:30 pm S 4.1 5.1----30.18- 73.8 80.6----
2024-07-12 07:24 pm S 4.1 7.0----30.17- 73.9 80.4----
2024-07-12 07:00 pm SE 6.0 8.0----30.17+0.02 73.9 80.2----
2024-07-12 06:54 pmSSE 4.1 6.0----30.17- 73.9 79.9----
2024-07-12 06:48 pmSSE 5.1 6.0----30.17-- 80.1----
2024-07-12 06:42 pmSSE 5.1 7.0----30.17-- 80.2----
2024-07-12 06:36 pmSSE 5.1 7.0----30.16-- 80.4----
2024-07-12 06:30 pm S 5.1 7.0----30.16- 73.6 81.1----
2024-07-12 06:24 pm S 5.1 7.0----30.16- 73.9 81.1----
2024-07-12 06:18 pm S 5.1 8.0----30.16-- 81.3----
2024-07-12 06:12 pm S 5.1 9.9----30.16-- 81.3----
2024-07-12 06:06 pm S 5.1 8.9----30.16-- 81.3----
2024-07-12 06:00 pm S 6.0 8.9----30.17+0.02 74.5 81.1----
2024-07-12 05:54 pm S 8.0 8.9----30.18- 74.8 81.5----
2024-07-12 05:48 pmSSE 8.0 9.9----30.18- 74.8 81.5----
2024-07-12 05:42 pm SE 8.0 12.0----30.18- 75.2 81.5----
2024-07-12 05:36 pmSSE 8.9 12.0----30.18- 75.4 81.3----
2024-07-12 05:30 pm S 9.9 12.0----30.19- 76.3 81.3----
2024-07-12 05:24 pmSSE 8.9 9.9----30.19- 76.8 81.1----
2024-07-12 05:18 pm S 5.1 6.0----30.19- 77.2 81.1----
2024-07-12 05:12 pm S 5.1 6.0----30.18- 77.4 81.1----
2024-07-12 05:06 pmSSE 4.1 5.1----30.18- 77.5 81.1----
2024-07-12 05:00 pmSSE 4.1 6.0----30.17+0.01 77.7 81.1----
2024-07-12 04:54 pmSSE 5.1 7.0----30.17- 77.9 81.3----
2024-07-12 04:48 pmESE 4.1 6.0----30.17- 78.1 81.3----
2024-07-12 04:42 pmESE 4.1 5.1----30.17- 77.9 81.3----
2024-07-12 04:36 pm E 4.1 5.1----30.16- 77.5 81.3----
2024-07-12 04:30 pm E 5.1 6.0----30.15- 77.5 81.3----
2024-07-12 04:24 pm E 5.1 7.0----30.15- 77.5 81.3----
2024-07-12 04:18 pm E 7.0 8.0----30.14- 77.4 81.3----
2024-07-12 04:12 pm E 6.0 8.9----30.15- 77.7 81.3----
2024-07-12 04:06 pm E 8.0 8.0----30.15- 77.5 81.3----
2024-07-12 04:00 pm E 6.0 8.9----30.15+0.00 77.4 81.3----
2024-07-12 03:54 pm E 8.9 11.1----30.15- 76.8 81.3----
2024-07-12 03:48 pmENE 8.9 9.9----30.15- 76.5 81.3----
2024-07-12 03:42 pmENE 8.0 9.9----30.15- 76.1 81.3----
2024-07-12 03:36 pmENE 7.0 8.9----30.15- 76.1 81.3----
2024-07-12 03:30 pm E 9.9 12.0----30.15- 75.7 81.3----
2024-07-12 03:24 pmENE 5.1 5.1----30.15- 75.2 81.3----
2024-07-12 03:18 pmENE 5.1 6.0----30.15- 74.7 81.3----
2024-07-12 03:12 pm NE 4.1 5.1----30.15- 74.3 81.3----
2024-07-12 03:06 pm NE 4.1 5.1----30.15- 73.8 81.1----
2024-07-12 03:00 pm NE 4.1 6.0----30.15+0.01 73.6 81.1----
2024-07-12 02:54 pmENE 4.1 5.1----30.16- 73.4 81.1----
2024-07-12 02:48 pm- 0.0 2.9----30.16- 74.1 81.1----
2024-07-12 02:42 pm N 2.9 7.0----30.16- 73.9 81.1----
2024-07-12 02:36 pm N 6.0 9.9----30.16- 73.9 81.1----
2024-07-12 02:30 pm N 8.9 9.9----30.16- 73.8 81.0----
2024-07-12 02:24 pm N 7.0 9.9----30.16- 73.9 81.0----
2024-07-12 02:18 pm N 9.9 9.9----30.16- 74.1 81.0----
2024-07-12 02:12 pmNNW 5.1 6.0----30.16- 74.3 81.0----
2024-07-12 02:06 pm NW 5.1 7.0----30.16- 73.9 81.0----
2024-07-12 02:00 pm N 5.1 6.0----30.16+0.03 73.4 81.0----
2024-07-12 01:54 pmESE 2.9 8.0----30.18- 73.4 80.8----
2024-07-12 01:48 pm S 5.1 8.0----30.18- 74.3 80.8----
2024-07-12 01:42 pm W 7.0 13.0----30.18- 75.0 80.8----
2024-07-12 01:36 pmWNW 11.1 15.0----30.16- 75.2 80.8----
2024-07-12 01:30 pmWNW 9.9 14.0----30.16- 75.0 80.8----
2024-07-12 01:24 pmWNW 12.0 17.1----30.16- 74.3 81.0----
2024-07-12 01:18 pmWNW 8.0 8.9----30.17- 74.1 81.0----
2024-07-12 01:12 pm W 8.0 18.1----30.18- 74.1 81.0----
2024-07-12 01:06 pm W 17.1 21.0----30.16- 74.3 80.8----
2024-07-12 01:00 pm W 19.0 26.0----30.15+0.04 75.0 81.0----
2024-07-12 12:54 pmWNW 20.0 25.1----30.15- 75.6 81.1----
2024-07-12 12:48 pmWSW 13.0 15.9----30.16- 75.6 81.1----
2024-07-12 12:42 pm W 14.0 20.0----30.15- 76.3 81.0----
2024-07-12 12:36 pm W 14.0 24.1----30.15- 77.7 81.0----
2024-07-12 12:30 pm W 21.0 26.0----30.14- 78.6 81.0----
2024-07-12 12:24 pmWSW 6.0 7.0----30.14- 82.0 81.1----
2024-07-12 12:18 pm SW 2.9 5.1----30.14- 82.2 81.1----
2024-07-12 12:12 pmWNW 4.1 4.1----30.14- 81.9 81.0----
2024-07-12 12:06 pmWNW 2.9 4.1----30.14- 82.0 81.0----
2024-07-12 12:00 pmWSW 1.9 4.1----30.14+0.02 82.2 80.8----
2024-07-12 11:54 am SW 2.9 5.1----30.14- 81.9 81.0----